RH
20 19 17 16 16 17 18 18 19 20 22 24 26 28 32 32 35 54 70 81 72 67 58 50 37 11 2
15 15 16 17 17 18 18 19 20 21 23 25 28 29 32 33 35 62 74 87 75 70 62 52 35 8 2
15 16 17 17 17 18 19 20 22 22 24 27 28 31 33 34 38 64 86 88 77 74 66 54 34 6 2
15 16 17 16 17 18 20 22 23 24 25 28 30 30 33 34 40 62 93 85 78 78 70 56 34 6 2
16 16 16 16 16 19 21 23 24 23 26 29 31 31 33 35 41 77 94 83 80 82 74 58 35 6 2
16 16 18 19 19 20 21 22 24 27 29 29 31 32 34 36 44 86 87 95 86 86 74 60 37 5 3
21 20 21 20 21 22 22 24 26 27 28 30 31 32 34 38 57 84 92 99 94 86 73 61 38 5 3
19 20 20 19 20 21 23 23 24 26 29 31 32 34 39 49 81 95 97 97 96 86 74 62 37 4 3
20 21 21 20 20 22 23 26 28 30 31 31 35 40 42 63 87 97 96 96 94 86 74 61 33 4 3
20 21 21 22 22 23 24 26 29 31 33 36 41 43 47 58 96 96 96 95 91 83 73 58 29 4 3
24 25 23 23 24 25 27 29 31 32 34 39 46 47 52 94 97 97 96 95 90 83 72 56 21 4 3
26 25 24 24 28 28 28 30 32 34 37 46 52 56 89 97 96 96 98 97 90 84 73 54 14 4 3
26 25 26 32 34 32 34 33 35 38 42 55 61 76 97 98 96 97 99 95 91 83 70 50 8 4 4
36 38 43 48 50 46 41 40 40 42 52 68 82 96 98 96 96 97 96 91 89 82 65 39 4 3 3
53 70 64 72 97 82 56 47 52 69 78 96 96 98 98 97 98 96 94 91 87 79 61 20 4 4 3
96 99 96 100 99 89 74 85 97 97 97 97 97 98 97 96 97 95 93 90 84 72 58 10 4 3 4
82 96 100 100 100 98 99 100 99 95 97 96 98 98 97 97 96 95 92 88 84 68 45 6 4 4 4
Wind_Speed
24 23 22 22 19 16 16 16 14 15 16 16 18 19 20 21 23 25 28 28 27 27 28 29 27 26 29
25 26 23 22 20 19 18 17 16 17 17 18 18 20 20 22 23 26 29 28 27 28 28 29 27 26 28
25 23 23 22 20 19 18 17 17 18 19 20 20 21 22 22 23 26 31 27 27 28 29 29 26 27 28
26 25 23 20 20 20 19 18 19 19 21 21 21 22 22 23 24 28 32 26 27 28 29 29 26 27 29
27 25 23 21 17 18 18 19 21 20 21 21 22 22 23 23 24 31 29 27 28 29 29 29 27 28 30
26 25 23 21 21 21 21 21 20 20 23 24 23 22 23 23 23 28 32 31 29 29 29 30 27 28 31
26 25 24 20 22 23 22 21 21 24 24 24 23 23 24 23 24 31 35 35 29 28 28 30 28 28 31
30 27 24 24 24 24 24 24 24 23 23 23 24 23 23 22 28 39 39 33 26 27 28 29 28 29 31
33 30 26 25 24 24 23 23 22 23 24 25 24 24 23 24 39 42 36 26 25 27 28 28 27 29 32
32 29 27 25 26 25 26 25 24 24 24 25 25 25 24 31 43 32 30 26 26 28 29 28 27 29 31
33 32 30 28 27 26 27 26 26 26 26 27 25 24 26 39 30 31 26 25 26 28 30 28 28 30 32
34 32 30 29 29 29 28 27 27 26 28 27 24 26 38 34 28 30 27 26 25 28 29 28 29 31 33
34 33 31 31 31 31 29 28 27 27 27 26 26 34 34 29 29 29 27 25 25 28 29 27 28 30 32
32 30 31 32 31 31 31 30 28 28 26 26 33 32 30 27 29 27 25 25 26 28 28 30 30 31 33
35 31 31 32 34 33 33 32 30 32 34 33 27 28 27 27 25 24 24 25 27 28 27 30 32 33 35
29 32 32 33 34 34 38 39 35 31 26 23 24 26 26 24 24 23 23 25 27 27 27 28 32 33 36
32 39 40 38 39 41 38 25 23 20 19 21 24 25 24 24 23 22 23 26 27 27 28 29 30 32 34
Wind_Direction
205 217 220 230 236 241 248 258 266 274 283 294 299 307 311 318 322 330 333 329 331 334 336 337 339 339 344
219 224 223 232 237 242 250 258 265 272 281 287 294 299 307 312 320 330 329 326 328 330 331 335 335 336 339
227 228 229 234 240 246 254 258 264 270 277 282 289 296 302 309 317 324 328 322 323 327 330 333 333 331 334
225 229 229 233 238 245 253 260 262 268 273 280 289 294 300 307 312 320 325 318 321 324 327 329 328 326 332
227 232 237 240 248 251 252 255 260 269 275 281 285 292 298 303 309 322 319 316 319 321 325 326 323 324 331
234 238 239 238 241 248 252 259 267 269 270 278 284 290 295 299 304 322 324 316 315 319 321 321 319 324 329
224 230 234 240 244 249 257 262 262 264 271 277 284 288 290 294 302 313 320 314 308 316 317 318 317 324 326
236 239 238 245 249 252 255 261 265 270 273 277 281 283 284 289 305 309 310 307 307 313 313 316 315 321 324
233 237 240 246 254 257 262 266 267 269 273 277 279 277 278 293 312 311 309 299 307 310 312 314 314 320 323
238 242 246 250 254 256 259 264 267 269 273 274 273 277 277 295 309 306 305 298 305 307 311 312 314 318 322
236 240 245 248 252 254 256 259 261 265 268 273 275 276 279 301 308 310 299 298 302 306 310 311 314 318 322
233 238 242 246 249 252 255 259 263 267 270 274 273 271 293 309 303 306 298 296 304 306 308 311 314 318 321
233 238 241 243 246 250 253 257 261 266 272 274 271 277 305 300 303 300 292 297 302 306 308 309 313 317 320
234 237 240 243 248 251 253 255 257 263 267 273 271 295 303 294 298 291 291 298 303 307 308 308 312 315 319
238 234 245 244 249 251 252 252 255 259 264 273 287 296 291 292 290 287 292 299 305 308 307 309 312 316 320
245 244 255 254 252 249 250 252 262 265 269 277 287 286 287 285 284 287 295 301 304 305 305 308 311 316 319
247 245 252 256 250 253 266 268 252 249 265 277 279 280 278 282 282 287 295 299 302 304 304 306 311 315 317